Regional Weather Roundup
Issued by NWS Upton, NY

Home | Current Version | Previous Version | Text Only | Print | Product List | Glossary On
Versions: 1 2 3 4 5 6 7 8 9 10 11 12 13 14 15 16 17 18 19 20 21 22 23 24 25 26 27 28 29 30 31 32 33 34 35 36 37 38 39 40 41 42 43 44 45 46 47 48 49 50
000
ASUS41 KOKX 292218
RWROKX

REGIONAL WEATHER ROUNDUP
NATIONAL WEATHER SERVICE NEW YORK NY
600 PM EDT FRI MAY 29 2015

NOTE: "FAIR" INDICATES FEW OR NO CLOUDS BELOW 12,000 FEET WITH NO
SIGNIFICANT WEATHER AND/OR OBSTRUCTIONS TO VISIBILITY.

NYZ071-072-176-178-NJZ106-104-292300-
NEW YORK CITY METRO AREA


CITY           SKY/WX    TMP DP  RH WIND       PRES   REMARKS
CENTRAL PARK   PTSUNNY   73  55  53 VRB7      30.25F
LAGUARDIA APRT PTSUNNY   76  56  49 S10       30.22S
KENNEDY INTL   PTSUNNY   70  55  59 SE9       30.25S
NEWARK/LIBERTY PTSUNNY   74  56  53 SE10      30.22S
BRNX BOT. GARD   N/A     77  57  50 S18       30.22F
TETERBORO      PTSUNNY   80  55  42 S9        30.19F
$$

NYZ177-179-078>081-292300-
LONG ISLAND NEW YORK

CITY           SKY/WX    TMP DP  RH WIND       PRES   REMARKS
FARMINGDALE    MOSUNNY   71  57  61 S9        30.24F
ISLIP          PTSUNNY   70  56  61 SE10      30.23F
SHIRLEY        MOSUNNY   69  57  65 SE6       30.25F
WESTHAMPTON    SUNNY     69  58  67 S7        30.27S
MONTAUK POINT    N/A     68  59  73 S6        30.26F
$$

NYZ052-065-067-292300-
HUDSON VALLEY

CITY           SKY/WX    TMP DP  RH WIND       PRES   REMARKS
WHITE PLAINS   PTSUNNY   76  56  49 SE6       30.22F
NEWBURGH       PTSUNNY   79  61  53 VRB6      30.22F
MONTGOMERY     PTSUNNY   81  58  45 S3        30.19F
POUGHKEEPSIE   PTSUNNY   82  56  40 S5        30.19F
ALBANY         CLOUDY    82  52  35 SE9       30.18F
$$

NJZ001-105-106-008-010-013-015-019>022-104-292300-
NEW JERSEY

CITY           SKY/WX    TMP DP  RH WIND       PRES   REMARKS
NEWARK/LIBERTY PTSUNNY   74  56  53 SE10      30.22S
TETERBORO      PTSUNNY   80  55  42 S9        30.19F
CALDWELL       MOSUNNY   80  55  42 S10G18    30.20F
MORRISTOWN     PTSUNNY   82  59  44 S12       30.20F
SOMERVILLE     MOSUNNY   83  61  47 VRB3      30.17F
SUSSEX         PTSUNNY   82  55  39 S3        30.21F
ANDOVER          N/A     82  56  40 VRB5      30.21F
TRENTON        MOSUNNY   84  60  44 S9        30.18F
MILLVILLE      SUNNY     79  65  62 S9G16     30.22F
ATLANTIC CITY  SUNNY     75  60  59 SE12      30.24S
WRIGHTSTOWN    SUNNY     79  60  53 SE10      30.18F
TOMS RIVER     MOSUNNY  N/A N/A N/A SE10      30.23F
BELMAR         MOSUNNY   72  55  56 E9        30.23F
$$

PAZ047>061-062-071-292300-
EASTERN PENNSYLVANIA

CITY           SKY/WX    TMP DP  RH WIND       PRES   REMARKS
PHILADELPHIA   PTSUNNY   86  65  49 SW7       30.19S
ALLENTOWN      PTSUNNY   86  57  37 S8        30.18F
SCRANTON       MOSUNNY   84  54  35 S8        30.19F
$$

CTZ002-004>006-009-010-012-RIZ004-006-007-MAZ004-011-015-292300-
SOUTHERN NEW ENGLAND
 IN CT

CITY           SKY/WX    TMP DP  RH WIND       PRES   REMARKS
BRADLEY INTL   PTSUNNY   82  57  42 CALM      30.20F
HARTFORD       MOSUNNY   80  59  48 S9        30.20F
DANBURY        PTSUNNY   76  58  53 SE8       30.23F
WTRBRY/OXFORD  SUNNY     75  61  60 S9        30.25F
BRIDGEPORT     MOSUNNY   74  55  51 SE6       30.23F
MERIDEN        MOSUNNY   79  56  45 S9        30.22F
NEW HAVEN      PTSUNNY   77  52  41 SE7       30.23F
CHESTER        FAIR      73  55  53 S7        30.25S
GROTON         SUNNY     68  56  65 SE8       30.25S
WILLIMANTIC    MOSUNNY   80  58  46 S13       30.23S

 IN RI

CITY           SKY/WX    TMP DP  RH WIND       PRES   REMARKS
PROVIDENCE     PTSUNNY   74  57  55 SE13      30.25S
BLOCK ISLAND   SUNNY     64  57  77 S7        30.26F
WESTERLY       SUNNY     69  56  62 S9        30.26F

 IN MA

CITY           SKY/WX    TMP DP  RH WIND       PRES   REMARKS
BOSTON         FOG       57  55  94 E8        30.26F VSB 1/4
WORCESTER      MOSUNNY   77  56  48 SE7       30.25F
WESTFIELD      PTSUNNY   82  56  40 S6        30.20F
PROVINCETOWN   SUNNY     64  55  72 E8        30.26F
NANTUCKET      SUNNY     65  58  78 SE5       30.26F
$$

ANZ330-335-338-340-345-350-353-355-292300-
COASTAL MARINE OBSERVATIONS


STATION/POSITION TIME  SKY/WX   TEMP    WIND        PRES    VSBY  WAVE
                                AIR SEA DIR/SP/G                  HT/PER
                 (UTC)          (F)     (DEG/KT/KT) (MB)    (MI)  (FT/S)
NY HARB ENTRANCE 2150            63 62  160/  8/ 10 1023.4          2/ 8
4S FIRE IS       2103               60                N/A           2/ 8
20S FIRE ISLAND  2150            59 60  150/  6/  8 1024.0          2/ 8
GREAT SOUTH BAY  2100            64 70  160/  8/ 10   N/A
23SW MTP         2150            58 58  170/  6/  6 1024.1          2/ 7
HUDSON CANYON    NOT AVBL
KINGS POINT      2106            75 60  200/  8/  9 1023.0
CENTRAL LI SOUND 2200            69 67  150/  8/ 10   N/A
EASTERN LI SOUND 2100            64     130/  6/  6   N/A
ROBBINS REEF     2106            65     170/ 19/ 21 1022.6
$$


>>>>>>>>>>>>>>>>>>>>>>>>>>>> KEY <<<<<<<<<<<<<<<<<<<<<<<<<<<
>                                                          <
>     SKY/WX - SKY CONDITION/PRESENT WEATHER               <
>     TMP    - TEMPERATURE IN FAHRENHEIT                   <
>     DP     - DEWPOINT IN FAHRENHEIT                      <
>     RH     - RELATIVE HUMIDITY IN PERCENT                <
>     WIND   - DIRECTION AND SPEED IN MPH                  <
>     PRES   - MEAN SEA LEVEL PRESSURE IN INCHES OF HG     <
>     WCI    - WIND CHILL INDEX                            <
>     VSB    - VISIBILITY IN MILES                         <
>     HX     - HEAT INDEX                                  <
>     TC     - TEMPERATURE IN CELSIUS                      <
>     VRB    - VARIABLE WIND DIRECTION                     <
>                                                          <
>>>>>>>>>>>>>>>>>>>>>>>>>>>> KEY <<<<<<<<<<<<<<<<<<<<<<<<<<<





USA.gov is the U.S. government's official web portal to all federal, state and local government web resources and services.